Weather History for Lincolnton, NC

Change the Weather History Date:

Thursday, November 7, 2013

  Actual Average (KCLT) Record (KCLT)
Temperature  
Mean Temperature 53 °F 54 °F  
Max Temperature 69 °F 65 °F 78 °F (1888)
Min Temperature 37 °F 42 °F 26 °F (1998)
Degree Days  
Heating Degree Days 12 12  
Month to date heating degree days 76  
Since 1 July heating degree days 282  
Cooling Degree Days 0 0  
Month to date cooling degree days 0  
Year to date cooling degree days 1513  
Growing Degree Days 3 (Base 50)    
Moisture  
Dew Point 42 °F    
Average Humidity 72    
Maximum Humidity 100    
Minimum Humidity 34    
Precipitation  
Precipitation 0.00 in 0.10 in 1.71 in (1935)
Month to date precipitation 0.70  
Year to date precipitation 35.94  
Snow  
Snow 0.00 in 0.00 in 0.00 in ()
Month to date snowfall 0.0  
Since 1 July snowfall 0.0  
Since 1 September snowfall 0.0  
Snow Depth -    
Sea Level Pressure  
Sea Level Pressure 30.06 in    
Wind  
Wind Speed 2 mph (NW)    
Max Wind Speed 14 mph    
Max Gust Speed 20 mph    
Visibility 9 miles    
Events Rain    
T = Trace of Precipitation, MM = Missing Value Source: NWS Daily Summary

Daily Weather History Graph

Daily Weather History Graph

Search for Another Location

Airport:

Trip Planner

Search our weather history database for the weather conditions in past years. The results will help you decide how hot, cold, wet, or windy it might be!

Date:

Astronomy

Nov. 07, 2013 Rise Set
Actual Time 6:52 AM EST 5:23 PM EST
Civil Twilight 6:25 AM EST 5:50 PM EST
Nautical Twilight 5:55 AM EST 6:20 PM EST
Astronomical Twilight 5:25 AM EST 6:50 PM EST
Moon 10:57 AM EST (11/7) 9:35 PM EST (11/7)
Length of Visible Light 11h 24m
Length of Day
10h 31m
Waxing Crescent, 22% of the Moon is Illuminated
Nov 7
Waxing Crescent
Nov 10
First Quarter
Nov 17
Full
Nov 25
Last Quarter
Dec 2
New

Hourly Weather History & Observations

Time (EST) Temp. Dew Point Humidity Pressure Visibility Wind Dir Wind Speed Gust Speed Precip Events Conditions
12:15 AM 44.6 °F 44.6 °F 100% 30.13 in 5.0 mi Calm Calm - N/A   Clear
12:35 AM 46.4 °F 44.6 °F 93% 30.13 in 7.0 mi Calm Calm - N/A   Clear
12:56 AM 44.6 °F 44.6 °F 100% 30.13 in 5.0 mi Calm Calm - N/A   Clear
1:15 AM 44.6 °F 44.6 °F 100% 30.12 in 7.0 mi Calm Calm - N/A   Clear
1:35 AM 44.6 °F 44.6 °F 100% 30.11 in 5.0 mi Calm Calm - N/A   Clear
1:55 AM 44.6 °F 44.6 °F 100% 30.10 in 7.0 mi Calm Calm - N/A   Clear
2:15 AM 44.6 °F 44.6 °F 100% 30.09 in 7.0 mi Calm Calm - N/A   Clear
2:35 AM 44.6 °F 44.6 °F 100% 30.08 in 7.0 mi Calm Calm - N/A   Clear
2:55 AM 44.6 °F 42.8 °F 93% 30.07 in 7.0 mi Calm Calm - N/A   Clear
3:15 AM 42.8 °F 42.8 °F 100% 30.06 in 4.0 mi Calm Calm - N/A   Clear
3:35 AM 42.8 °F 42.8 °F 100% 30.05 in 7.0 mi Calm Calm - N/A   Clear
3:55 AM 42.8 °F 42.8 °F 100% 30.04 in 7.0 mi Calm Calm - N/A   Clear
4:15 AM 42.8 °F 42.8 °F 100% 30.03 in 7.0 mi Calm Calm - N/A   Clear
4:35 AM 42.8 °F 42.8 °F 100% 30.03 in 5.0 mi Calm Calm - N/A   Clear
4:55 AM 42.8 °F 42.8 °F 100% 30.03 in 5.0 mi Calm Calm - N/A   Clear
5:16 AM 42.8 °F 42.8 °F 100% 30.03 in 7.0 mi Calm Calm - N/A   Clear
5:35 AM 42.8 °F 42.8 °F 100% 30.03 in 5.0 mi Calm Calm - N/A   Clear
5:55 AM 42.8 °F 42.8 °F 100% 30.02 in 7.0 mi Calm Calm - N/A   Clear
6:15 AM 42.8 °F 42.8 °F 100% 30.02 in 7.0 mi Calm Calm - N/A   Clear
6:36 AM 42.8 °F 42.8 °F 100% 30.02 in 7.0 mi Calm Calm - N/A   Scattered Clouds
6:55 AM 42.8 °F 42.8 °F 100% 30.02 in 7.0 mi Calm Calm - N/A   Scattered Clouds
7:15 AM 44.6 °F 44.6 °F 100% 30.03 in 7.0 mi Calm Calm - N/A   Mostly Cloudy
7:35 AM 46.4 °F 46.4 °F 100% 30.03 in 7.0 mi Calm Calm - N/A   Overcast
7:55 AM 48.2 °F 46.4 °F 93% 30.04 in 7.0 mi Calm Calm - N/A   Overcast
8:17 AM 50.0 °F 48.2 °F 94% 30.04 in 5.0 mi Calm Calm - N/A   Overcast
8:35 AM 51.8 °F 50.0 °F 94% 30.04 in 7.0 mi Calm Calm - N/A   Overcast
8:55 AM 53.6 °F 51.8 °F 94% 30.04 in 10.0 mi Calm Calm - N/A   Overcast
9:15 AM 53.6 °F 51.8 °F 94% 30.04 in 10.0 mi Calm Calm - N/A   Overcast
9:35 AM 55.4 °F 51.8 °F 88% 30.03 in 10.0 mi Calm Calm - N/A Rain Light Rain
9:55 AM 57.2 °F 53.6 °F 88% 30.02 in 7.0 mi Calm Calm - N/A Rain Light Rain
10:15 AM 57.2 °F 55.4 °F 94% 30.01 in 10.0 mi Calm Calm - N/A   Scattered Clouds
10:35 AM 59.0 °F 55.4 °F 88% 30.00 in 10.0 mi Calm Calm - N/A   Mostly Cloudy
10:56 AM 60.8 °F 55.4 °F 82% 30.01 in 10.0 mi West 3.5 mph - N/A   Overcast
11:15 AM 60.8 °F 55.4 °F 82% 30.01 in 10.0 mi WNW 3.5 mph - N/A   Overcast
11:35 AM 62.6 °F 55.4 °F 77% 30.00 in 10.0 mi SW 4.6 mph - N/A   Mostly Cloudy
11:55 AM 64.4 °F 55.4 °F 73% 30.00 in 10.0 mi West 8.1 mph - N/A   Mostly Cloudy
12:15 PM 64.4 °F 55.4 °F 73% 30.00 in 10.0 mi West 6.9 mph - N/A   Mostly Cloudy
12:35 PM 66.2 °F 55.4 °F 68% 30.00 in 10.0 mi West 4.6 mph - N/A   Overcast
12:55 PM 69.8 °F 55.4 °F 60% 29.98 in 10.0 mi WNW 4.6 mph - N/A   Mostly Cloudy
1:15 PM 69.8 °F 51.8 °F 53% 29.97 in 10.0 mi West 5.8 mph - N/A   Mostly Cloudy
1:35 PM 69.8 °F 50.0 °F 49% 29.97 in 10.0 mi NNW 6.9 mph - N/A   Mostly Cloudy
1:55 PM 69.8 °F 48.2 °F 46% 29.97 in 10.0 mi NNW 6.9 mph - N/A   Mostly Cloudy
2:15 PM 69.8 °F 46.4 °F 43% 29.98 in 10.0 mi WNW 4.6 mph - N/A   Mostly Cloudy
2:35 PM 69.8 °F 46.4 °F 43% 29.98 in 10.0 mi WNW 8.1 mph - N/A   Scattered Clouds
2:55 PM 69.8 °F 42.8 °F 38% 29.98 in 10.0 mi NW 10.4 mph 18.4 mph N/A   Scattered Clouds
3:15 PM 68.0 °F 39.2 °F 35% 30.00 in 10.0 mi NW 9.2 mph 17.3 mph N/A   Scattered Clouds
3:35 PM 66.2 °F 37.4 °F 35% 30.00 in 10.0 mi WNW 6.9 mph 17.3 mph N/A   Clear
3:55 PM 64.4 °F 35.6 °F 34% 30.01 in 10.0 mi NNW 13.8 mph 18.4 mph N/A   Clear
4:15 PM 62.6 °F 33.8 °F 34% 30.02 in 10.0 mi NW 10.4 mph 19.6 mph N/A   Clear
4:35 PM 60.8 °F 33.8 °F 36% 30.04 in 10.0 mi NW 10.4 mph 16.1 mph N/A   Clear
4:55 PM 59.0 °F 33.8 °F 39% 30.05 in 10.0 mi NW 5.8 mph 18.4 mph N/A   Clear
5:15 PM 57.2 °F 32.0 °F 38% 30.05 in 10.0 mi NW 6.9 mph - N/A   Clear
5:35 PM 55.4 °F 30.2 °F 38% 30.06 in 10.0 mi NW 5.8 mph - N/A   Clear
5:55 PM 55.4 °F 30.2 °F 38% 30.08 in 10.0 mi NW 5.8 mph - N/A   Clear
6:15 PM 53.6 °F 30.2 °F 41% 30.09 in 10.0 mi NW 8.1 mph - N/A   Clear
6:35 PM 53.6 °F 30.2 °F 41% 30.10 in 10.0 mi NW 4.6 mph - N/A   Clear
6:55 PM 51.8 °F 30.2 °F 44% 30.11 in 10.0 mi NW 4.6 mph - N/A   Clear
7:15 PM 51.8 °F 30.2 °F 44% 30.12 in 10.0 mi NNW 8.1 mph - N/A   Clear
7:35 PM 51.8 °F 28.4 °F 41% 30.12 in 10.0 mi NW 4.6 mph - N/A   Clear
7:55 PM 50.0 °F 28.4 °F 43% 30.13 in 10.0 mi North 4.6 mph - N/A   Clear
8:15 PM 48.2 °F 28.4 °F 46% 30.13 in 10.0 mi North 4.6 mph - N/A   Clear
8:35 PM 48.2 °F 30.2 °F 50% 30.13 in 10.0 mi NNW 4.6 mph - N/A   Clear
8:55 PM 48.2 °F 30.2 °F 50% 30.13 in 10.0 mi NNW 6.9 mph - N/A   Clear
9:15 PM 48.2 °F 30.2 °F 50% 30.13 in 10.0 mi NNW 5.8 mph - N/A   Clear
9:35 PM 48.2 °F 30.2 °F 50% 30.13 in 10.0 mi NNW 3.5 mph - N/A   Clear
9:55 PM 46.4 °F 30.2 °F 53% 30.13 in 10.0 mi Calm Calm - N/A   Clear
10:15 PM 44.6 °F 30.2 °F 57% 30.13 in 10.0 mi Calm Calm - N/A   Clear
10:35 PM 44.6 °F 30.2 °F 57% 30.14 in 10.0 mi Calm Calm - N/A   Clear
10:55 PM 42.8 °F 32.0 °F 66% 30.14 in 10.0 mi Calm Calm - N/A   Clear
11:15 PM 39.2 °F 33.8 °F 81% 30.15 in 10.0 mi Calm Calm - N/A   Clear
11:35 PM 37.4 °F 32.0 °F 81% 30.15 in 10.0 mi Calm Calm - N/A   Clear
11:55 PM 37.4 °F 33.8 °F 87% 30.15 in 10.0 mi Calm Calm - N/A   Clear